Weather History for UHSS - November, 2012

Change the Weather History Date:

Wednesday, November 7, 2012

  Actual Average Record
Temperature  
Mean Temperature 40 °F -  
Max Temperature 48 °F 41 °F 55 °F (2013)
Min Temperature 32 °F 24 °F 17 °F (1996)
Degree Days  
Heating Degree Days 25    
Moisture  
Dew Point 39 °F    
Average Humidity 84    
Maximum Humidity 100    
Minimum Humidity 66    
Precipitation  
Precipitation 0.00 in - - ()
Sea Level Pressure  
Sea Level Pressure 30.04 in    
Wind  
Wind Speed 8 mph ()    
Max Wind Speed 18 mph    
Max Gust Speed 25 mph    
Visibility 6.0 miles    
Events Rain    
Averages and records for this station are not official NWS values.
T = Trace of Precipitation, MM = Missing Value Source: Averaged Metar Reports

Daily Weather History Graph

Daily Weather History Graph

Search for Another Location

Airport or City:

Trip Planner

Search our weather history database for the weather conditions in past years. The results will help you decide how hot, cold, wet, or windy it might be!

Date:

Astronomy

Nov. 07, 2012 Rise Set
Actual Time 8:20 AM VLAT 6:04 PM VLAT
Civil Twilight 7:47 AM VLAT 6:37 PM VLAT
Nautical Twilight 7:11 AM VLAT 7:13 PM VLAT
Astronomical Twilight 6:36 AM VLAT 7:48 PM VLAT
Moon 12:07 AM VLAT (11/7) 2:18 PM VLAT (11/7)
Length of Visible Light 10h 49m
Length of Day
9h 44m
Waning Gibbous, 50% of the Moon is Illuminated
Nov 7
Waning Gibbous
Nov 14
New
Nov 21
First Quarter
Nov 29
Full
Dec 7
Last Quarter

Hourly Weather History & Observations

Time (VLAT) Temp. Windchill Dew Point Humidity Pressure Visibility Wind Dir Wind Speed Gust Speed Precip Events Conditions
12:00 AM 30.2 °F 25.5 °F 30.2 °F 100% 30.12 in 3.7 mi North 4.5 mph - N/A   Unknown
1:00 AM 33.8 °F 27.9 °F 32.0 °F 93% 30.12 in 3.7 mi North 6.7 mph - N/A   Unknown
2:00 AM 35.6 °F 28.7 °F 33.8 °F 93% 30.12 in 6.2 mi North 8.9 mph - N/A   Unknown
3:00 AM 37.4 °F 30.9 °F 37.4 °F 100% 30.12 in 6.2 mi NNW 8.9 mph - N/A   Mostly Cloudy
4:00 AM 37.4 °F 30.9 °F 35.6 °F 93% 30.12 in 6.2 mi NNE 8.9 mph - N/A   Mostly Cloudy
5:00 AM 37 °F - 35 °F 89% 30.13 in 2 mi North 4.5 mph - -   Overcast
5:00 AM 41.0 °F 35.4 °F 37.4 °F 87% 30.09 in 6.2 mi North 8.9 mph - N/A   Mostly Cloudy
6:00 AM 42.8 °F 35.2 °F 39.2 °F 87% 30.09 in 6.2 mi ENE 15.7 mph - N/A   Mostly Cloudy
6:26 AM 42.8 °F 37.6 °F 39.2 °F 87% 30.09 in 6.2 mi NNE 8.9 mph - N/A   Mostly Cloudy
6:30 AM 42.8 °F 37.6 °F 39.2 °F 87% 30.09 in 6.2 mi NNE 8.9 mph - N/A   Mostly Cloudy
7:00 AM 41.0 °F 33.6 °F 39.2 °F 93% 30.09 in 6.2 mi NNE 13.4 mph - N/A   Mostly Cloudy
7:30 AM 39.2 °F 32.2 °F 39.2 °F 100% 30.09 in 6.2 mi NNE 11.2 mph - N/A   Mostly Cloudy
8:00 AM 39.2 °F 32.2 °F 39.2 °F 100% 30.06 in 6.2 mi North 11.2 mph - N/A   Mostly Cloudy
8:30 AM 39.2 °F 33.1 °F 39.2 °F 100% 30.06 in 6.2 mi North 8.9 mph - N/A   Mostly Cloudy
9:00 AM 41.0 °F - 39.2 °F 93% 30.06 in 6.2 mi Calm Calm - N/A   Mostly Cloudy
9:30 AM 46.4 °F - 41.0 °F 81% 30.06 in 6.2 mi WSW 2.2 mph - N/A   Mostly Cloudy
10:00 AM 46.4 °F 44.4 °F 41.0 °F 81% 30.06 in 6.2 mi East 4.5 mph - N/A   Mostly Cloudy
10:30 AM 46.4 °F 40.5 °F 39.2 °F 76% 30.06 in 6.2 mi ESE 13.4 mph - N/A   Mostly Cloudy
11:00 AM 46 °F - 38 °F 67% 30.10 in 31 mi East 8.9 mph - -   Partly Cloudy
11:00 AM 46.4 °F 42.0 °F 39.2 °F 76% 30.06 in 6.2 mi ESE 8.9 mph - N/A   Mostly Cloudy
11:30 AM 46.4 °F 44.4 °F 39.2 °F 76% 30.06 in 6.2 mi East 4.5 mph - N/A   Mostly Cloudy
12:00 PM 46.4 °F 44.4 °F 39.2 °F 76% 30.06 in 6.2 mi ESE 4.5 mph - N/A   Mostly Cloudy
12:30 PM 48.2 °F - 37.4 °F 66% 30.06 in 6.2 mi ENE 6.7 mph 17.9 mph N/A   Mostly Cloudy
1:00 PM 46.4 °F 40.5 °F 37.4 °F 71% 30.06 in 6.2 mi ENE 13.4 mph 24.6 mph N/A   Mostly Cloudy
1:30 PM 46.4 °F 40.5 °F 37.4 °F 71% 30.04 in 6.2 mi East 13.4 mph 24.6 mph N/A   Mostly Cloudy
2:00 PM 44.6 °F 38.9 °F 39.2 °F 81% 30.04 in 6.2 mi ENE 11.2 mph 22.4 mph N/A   Mostly Cloudy
2:30 PM 44.6 °F 38.9 °F 39.2 °F 81% 30.04 in 6.2 mi ENE 11.2 mph 22.4 mph N/A   Mostly Cloudy
3:00 PM 44.6 °F 38.9 °F 39.2 °F 81% 30.01 in 6.2 mi ENE 11.2 mph 22.4 mph N/A   Mostly Cloudy
3:30 PM 44.6 °F 38.9 °F 39.2 °F 81% 30.01 in 6.2 mi East 11.2 mph - N/A   Mostly Cloudy
4:00 PM 44.6 °F 40.8 °F 39.2 °F 81% 30.01 in 6.2 mi ENE 6.7 mph - N/A   Mostly Cloudy
4:30 PM 44.6 °F 40.8 °F 41.0 °F 87% 30.01 in 6.2 mi ENE 6.7 mph - N/A   Mostly Cloudy
5:00 PM 45 °F - 40 °F 76% 30.03 in 12 mi NE 4.5 mph - - Rain Light Rain Showers
5:00 PM 44.6 °F 40.8 °F 41.0 °F 87% 30.01 in 6.2 mi ENE 6.7 mph - N/A   Mostly Cloudy
5:30 PM 46.4 °F 44.4 °F 41.0 °F 81% 30.01 in 6.2 mi East 4.5 mph - N/A Rain Light Rain Showers
6:00 PM 46.4 °F - 41.0 °F 81% 29.98 in 6.2 mi East 2.2 mph - N/A Rain Light Rain Showers
6:30 PM 46.4 °F 43.0 °F 41.0 °F 81% 29.98 in 6.2 mi ENE 6.7 mph - N/A Rain Light Rain Showers
7:00 PM 46.4 °F 44.4 °F 41.0 °F 81% 29.98 in 6.2 mi ENE 4.5 mph - N/A Rain Light Rain Showers
7:30 PM 46.4 °F 39.3 °F 41.0 °F 81% 29.98 in 6.2 mi East 17.9 mph - N/A   Mostly Cloudy
8:00 PM 46.4 °F 39.3 °F 41.0 °F 81% 29.98 in 6.2 mi ESE 17.9 mph - N/A   Mostly Cloudy
8:30 PM 46.4 °F 41.2 °F 42.8 °F 87% 29.98 in 6.2 mi East 11.2 mph 22.4 mph N/A   Mostly Cloudy
9:00 PM 46.4 °F 40.5 °F 41.0 °F 81% 29.98 in 6.2 mi East 13.4 mph - N/A   Mostly Cloudy
9:30 PM 46.4 °F 40.5 °F 41.0 °F 81% 29.98 in 6.2 mi ESE 13.4 mph - N/A   Mostly Cloudy
10:00 PM 46.4 °F 40.5 °F 42.8 °F 87% 29.98 in 6.2 mi ESE 13.4 mph - N/A   Mostly Cloudy
11:00 PM 46 °F - 42 °F 80% 29.99 in 2 mi East 8.9 mph - - Rain Light Rain Showers
11:00 PM 46.4 °F 41.2 °F 42.8 °F 87% 29.95 in 6.2 mi East 11.2 mph 22.4 mph N/A Rain Light Rain Showers